Location: Quail Creek Observatory
(32.9410°N, 97.1240°W)
Time: 10:01:09
(UTC-05:00)

Daily predictions for brighter satellites

Satellite Brightness Start Highest point End
(mag) Time Altitude Azimuth Time Altitude Azimuth Time Altitude Azimuth
ATLAS CENTAUR Rocket 3.9 19:58:08 10° WSW 20:03:33 67° S 20:34:42 10° E
Cosmos 2221 3.3 21:01:41 10° NNW 21:05:51 55° W 21:10:03 10° S
Cosmos 1743 Rocket 3.7 21:02:24 10° S 21:06:48 62° E 21:11:12 10° NNE
Meteor 1-21 Rocket 4.4 21:02:12 10° SSE 21:07:31 51° E 21:12:51 10° NNE
Cosmos 1500 Rocket 3.9 21:08:18 10° SSE 21:12:27 45° E 21:16:40 10° NNE
S3M 4.1 21:12:18 10° N 21:18:20 60° E 21:24:23 10° SSE
Cosmos 2228 Rocket 3.1 21:13:54 10° N 21:18:24 72° E 21:22:54 10° SSE
Envisat 4.1 21:19:39 10° SE 21:23:55 28° ENE 21:28:11 10° NNE
ERS-1 Rocket 3.3 21:20:04 10° SSE 21:24:53 49° ENE 21:29:44 10° N
Cosmos 2219 3.8 21:20:29 10° SSE 21:25:38 35° ESE 21:30:47 10° NE
Resurs 01 Rocket 4.3 21:23:44 10° SW 21:26:44 18° W 21:29:46 10° NW
Delta 2 Rocket 3.3 21:23:33 10° W 21:27:19 65° N 21:30:45 10° ENE
Cosmos 1441 Rocket 3.2 21:25:57 10° S 21:29:44 84° W 21:33:30 10° N
BREEZE M DEB (TANK) 1.5 21:30:57 10° WNW 21:32:51 67° SSW 21:35:24 15° SE
deb Chang Zheng 4 3.6 21:29:24 10° NNE 21:33:41 59° ESE 21:37:57 10° S
Cosmos 2322 4.5 21:33:38 10° N 21:38:55 37° ENE 21:43:02 16° SE
Cosmos 2151 3.5 21:35:06 10° SSE 21:38:59 38° E 21:42:52 10° NNE
Cosmos 2322 Rocket 2.5 21:34:00 10° NNW 21:39:34 68° WSW 21:45:08 10° S
Cosmos 1777 Rocket 4.5 21:35:39 10° SSW 21:40:52 66° WNW 21:46:06 10° N
NOSS 3-1 (C) 3.5 21:37:21 10° S 21:42:50 48° ESE 21:48:44 10° NE
Cosmos 1515 Rocket 3.5 21:40:51 10° N 21:45:17 86° E 21:49:40 10° S
USA 186 3.7 21:44:52 10° SW 21:46:29 17° W 21:48:08 10° NW
Cosmos 2360 Rocket 2.6 21:43:03 10° N 21:48:29 47° ENE 21:52:21 19° SE
Nimbus 7 Rocket 4.4 21:42:58 10° NNE 21:48:48 67° ESE 21:54:37 10° S
SL-16 R/B 2.7 21:45:34 10° NNW 21:51:08 58° WSW 21:56:39 10° S
GPS 2-04 Rocket1 4.3 21:49:18 10° W 21:53:02 27° SSW 21:55:23 17° SSE
DELTA 2 R/B (1) 4.0 21:48:00 10° WNW 21:53:30 59° NNE 21:58:07 15° E
Cosmos 2058 3.7 21:52:03 21° SE 21:54:05 32° E 21:57:44 10° NNE
Cosmos 1908 3.2 21:52:38 10° N 21:56:32 73° E 21:59:14 19° SSE
Meteor 2-20 Rocket 4.4 21:50:50 10° S 21:56:58 82° E 22:03:08 10° N
OAO 2 Rocket 3.4 21:52:18 10° WSW 21:57:33 63° SSE 22:02:48 10° E
Cosmos 1674 3.0 21:56:22 10° SSW 22:00:09 69° W 22:04:00 10° N
H-2A R/B 1.5 21:58:09 10° SW 22:00:03 23° SSW 22:00:03 23° SSW
Cosmos 1151 Rocket 2.9 21:57:49 10° N 22:02:08 74° E 22:05:01 21° SSE
Cosmos 405 2.9 22:00:15 10° N 22:03:52 82° E 22:05:51 25° SSE
ALOS 4.4 22:01:43 10° SSW 22:05:27 24° W 22:09:13 10° NW
OE (NEXTSAT) 4.3 22:02:49 10° NW 22:06:23 89° SSW 22:07:46 35° SE
Cosmos 2266 Rocket 4.2 22:01:15 10° S 22:07:33 77° W 22:13:48 10° N
Cosmos 1805 Rocket 3.8 22:06:22 23° SSE 22:08:50 50° E 22:13:08 10° NNE
H-2A R/B 4.0 22:08:02 12° E 22:09:50 14° ENE 22:12:30 10° NE
OTV 4 1.5 22:07:46 10° SW 22:09:38 28° SSW 22:09:38 28° SSW
Cosmos 2227 Rocket 3.5 22:11:30 20° E 22:11:33 20° E 22:15:34 10° NE
Meteor 1-11 4.5 22:07:48 19° SSE 22:11:44 50° E 22:17:15 10° NNE
Tiangong 1 2.2 22:10:17 10° W 22:13:16 43° NNW 22:16:15 10° NE
YAOGAN 6 3.4 22:12:45 31° E 22:13:27 34° ENE 22:16:46 10° N
CZ-4B R/B 3.7 22:08:55 10° NNE 22:14:02 51° E 22:17:02 23° SSE
Cosmos 1680 Rocket 3.5 22:11:30 10° NNW 22:16:46 75° ENE 22:19:32 28° SSE
Cosmos 1300 3.5 22:13:54 10° NNE 22:17:26 33° E 22:17:52 32° E
Cosmos 2315 Rocket 4.0 22:12:14 10° N 22:18:23 64° E 22:21:57 26° SSE
UNK 4.5 22:12:18 10° NNE 22:18:33 77° ESE 22:24:52 10° S
Cosmos 923 Rocket 4.1 22:16:09 10° NNW 22:21:20 73° WSW 22:24:27 24° S
SPOT 1/Viking Rocket 4.0 22:19:48 30° ESE 22:21:47 43° ENE 22:26:38 10° N
Hubble Space Telescope 2.7 22:19:14 10° SSW 22:20:32 16° SSW 22:20:32 16° SSW
Cosmos 1939 Rocket 3.7 22:21:30 18° SSW 22:24:05 45° W 22:27:50 10° NNW
Cosmos 1898 Rocket 3.5 22:21:56 22° S 22:25:11 61° ESE 22:30:18 10° NNE
H-2A R/B 3.0 22:22:16 16° S 22:25:35 47° W 22:29:57 10° NNW
Cosmos 2333 Rocket 3.9 22:25:28 10° NNE 22:29:22 18° ENE 22:31:18 16° E
Cosmos 858 Rocket 4.5 22:27:45 26° S 22:30:34 62° ESE 22:35:42 10° NNE
Cosmos 1666 Rocket 3.5 22:29:56 40° SSE 22:31:22 68° E 22:35:46 10° NNE
Cosmos 1244 Rocket 4.4 22:26:45 19° S 22:31:26 78° E 22:37:43 10° N
Cosmos 220 Rocket 4.4 22:31:40 41° ESE 22:31:45 41° ESE 22:35:55 10° NNE
Cosmos 1707 Rocket 3.7 22:27:45 10° N 22:32:03 56° E 22:32:57 46° SE
Cosmos 2150 Rocket 4.0 22:28:33 18° S 22:32:35 75° ESE 22:38:03 10° NNE
PSLV R/B 3.4 22:33:00 56° SW 22:33:19 61° W 22:36:22 10° NNW
SPOT 5 2.9 22:32:35 30° S 22:34:44 68° WSW 22:39:28 10° NNW
MetOp-A 4.1 22:33:18 32° SSE 22:35:53 88° WSW 22:41:16 10° NNW
Meteor 2-11 Rocket 4.5 22:32:16 10° N 22:38:22 64° E 22:40:47 37° SSE
Cosmos 2297 Rocket 3.5 22:39:29 23° E 22:39:29 23° E 22:42:57 10° NE
Centaur D-1A AC-32 4.5 22:34:19 10° SW 22:37:47 16° SSW 22:37:47 16° SSW
COSMOS 2428 2.8 22:35:51 10° NNW 22:41:30 63° ENE 22:43:18 42° SE
ARGOS 3.3 22:41:02 41° SE 22:42:41 60° ENE 22:47:59 10° N
NOSS 3-1 (A) 3.6 22:40:59 10° SW 22:46:44 70° WNW 22:53:03 10° NNE
SL-08 R/B 4.5 22:44:56 38° SSE 22:47:19 63° E 22:53:30 10° NNE
Cosmos 1745 Rocket 4.1 22:47:12 41° SE 22:49:04 55° E 22:55:06 10° NNE
Cosmos 2219 Rocket 3.0 22:44:21 10° N 22:49:26 34° ENE 22:50:35 31° E
Cosmos 1726 2.2 22:54:33 10° N 22:58:06 77° NNW 22:58:06 77° NNW
CZ-4C R/B 4.2 22:59:54 34° NNE 22:59:54 34° NNE 23:02:13 10° N
DMSP B5D2-2 4.4 22:56:40 10° NNE 23:01:25 45° E 23:01:25 45° E
Cosmos 2237 4.2 22:57:21 10° NNW 23:03:05 78° WSW 23:04:32 51° S
NOSS 0 Rocket 4.5 22:58:14 10° N 23:04:03 43° ENE 23:05:19 38° E
Landsat 7 3.9 23:05:57 59° E 23:06:04 60° ENE 23:10:46 10° N
ATLAS 2AS CENTAUR R/B 2.9 23:05:37 36° S 23:08:48 64° ESE 23:16:37 10° NE
USA 32 3.9 23:03:43 10° N 23:09:00 83° E 23:09:42 67° SSE
Cosmos 292 Rocket 3.8 23:04:35 10° N 23:09:18 63° ENE 23:09:18 63° ENE
Delta 2 Rocket 4.1 23:06:31 10° WNW 23:09:00 39° NW 23:09:00 39° NW
Cosmos 1386 Rocket 4.3 23:12:51 58° SE 23:13:37 63° E 23:19:32 10° NNE
Cosmos 1271 Rocket 3.3 23:12:15 10° N 23:15:19 55° NNW 23:15:19 55° NNW
Cosmos 1703 3.8 23:16:40 55° NW 23:16:40 55° NW 23:20:10 10° N
Meteor 1-4 Rocket 3.6 23:17:04 10° NNW 23:19:51 45° NW 23:19:51 45° NW
Cosmos 2082 3.6 23:19:48 62° SSW 23:20:51 87° ESE 23:26:36 10° NNE
Cosmos 2237 Rocket 2.8 23:15:45 10° N 23:21:09 42° ENE 23:21:31 42° ENE
Cosmos 2333 4.2 23:15:39 10° NNW 23:21:22 74° WSW 23:22:12 63° SSW
Terra 2.1 23:22:18 58° NE 23:22:18 58° NE 23:26:37 10° N
Meteor 2-10 4.1 23:17:44 10° N 23:23:29 87° ENE 23:24:07 72° SSE
Cosmos 1937 Rocket 4.2 23:21:29 28° SW 23:23:58 49° WNW 23:29:01 10° N
Cosmos 2242 Rocket 3.9 23:19:53 10° NNW 23:24:14 60° W 23:24:14 60° W
Spot 4 4.4 23:26:34 48° NE 23:26:34 48° NE 23:30:46 10° N
CARTOSAT-1 4.0 23:28:15 56° NNE 23:28:15 56° NNE 23:31:44 10° N
ATLAS 3B R/B 4.0 23:23:21 10° N 23:29:03 26° NE 23:31:15 22° ENE
Lacrosse 4 Rocket 3.9 23:27:45 10° NNE 23:29:44 13° NE 23:29:44 13° NE
Cosmos 1862 Rocket 4.3 23:26:30 10° N 23:29:43 46° NNE 23:29:43 46° NNE
Cosmos 2360 Rocket 4.2 23:28:12 10° WNW 23:32:01 19° W 23:34:08 15° SW
Cosmos 1626 3.7 23:35:44 33° N 23:35:44 33° N 23:37:56 10° N
Cosmos 990 Rocket 4.4 23:33:44 47° WSW 23:34:44 56° WNW 23:39:48 10° N
DELTA 2 R/B (1) 4.2 23:34:35 10° WNW 23:38:52 43° WSW 23:38:52 43° WSW
OAO 2 Rocket 3.5 23:37:07 10° W 23:42:20 73° NNW 23:42:20 73° NNW
H-2A R/B 2.3 23:48:41 64° W 23:48:41 64° W 23:53:58 10° NNW
Tiangong 1 4.4 23:48:29 10° NW 23:49:20 13° NNW 23:49:20 13° NNW
COSMOS 2455 3.7 23:47:34 10° N 23:53:06 36° ENE 23:53:21 36° ENE
